AirNav   Jet Aviation Boston
 
 1201 users online  

W35 Potomac Airpark
Berkeley Springs, West Virginia, USA

GOING TO BERKELEY SPRINGS?


FAA INFORMATION EFFECTIVE 21 JUNE 2018

Location

FAA Identifier: W35
Lat/Long: 39-41-33.4000N / 078-09-57.9000W
39-41.556667N / 078-09.965000W
39.6926111 / -78.1660833
(estimated)
Elevation: 412.5 ft. / 125.7 m (surveyed)
Variation: 10W (2000)
From city: 4 miles N of BERKELEY SPRINGS, WV
Time zone: UTC -4 (UTC -5 during Standard Time)
Zip code: 25411

Airport Operations

Airport use: Open to the public
Activation date: 12/1947
Control tower: no
ARTCC: WASHINGTON CENTER
FSS: ELKINS FLIGHT SERVICE STATION [703-724-4288]
NOTAMs facility: EKN (NOTAM-D service available)
Attendance: IREG
Wind indicator: lighted
Segmented circle: no
Lights: SS-SR

Airport Communications

CTAF: 122.9
POTOMAC APPROACH: 126.825
POTOMAC DEPARTURE: 126.825
WX ASOS at MRB (19 nm SE): 119.925 (304-264-0988,)
  • APCH/DEP SVC PRVDD BY POTOMAC TRACON (PCT) FREQ 126.825/239.025.

Nearby radio navigation aids

VOR radial/distance  VOR name  Freq  Var
HGRr276/(14.3)HAGERSTOWN VOR109.8007W
THSr221/17.5ST THOMAS VORTAC115.0007W
MRBr328/23.6MARTINSBURG VORTAC112.1007W

 
NDB name  Hdg/Dist  Freq  Var  ID
CUMBERLAND094/27.031710WCBE -.-. -... .

Airport Services

Airframe service: NONE
Powerplant service: NONE
Bottled oxygen: NONE
Bulk oxygen: NONE

Runway Information

Runway 11/29

Dimensions: 4979 x 70 ft. / 1518 x 21 m
Surface: asphalt, in poor condition
PAVEMENT SPALLING, CRACKS, UNEVEN SURFACE. LOOSE AGGREGATE AND STONES. VEGETATION GROWING THROUGH PAVEMENT.
Runway edge lights: medium intensity
Runway edge markings: MARKINGS FADED, ONLY THLD AND NUMBERS MARKED, NO CNTRLN.
RUNWAY 11  RUNWAY 29
Latitude: 39-41.625638N39-41.487682N
Longitude: 078-10.487978W078-09.441572W
Elevation: 409.9 ft.411.5 ft.
Traffic pattern: leftright
Runway heading: 110 magnetic, 100 true290 magnetic, 280 true
Markings: nonprecision, in poor conditionnonprecision, in poor condition
Runway end identifier lights: nono
Touchdown point: yes, no lightsyes, no lights
Obstructions: 60 ft. trees, 201 ft. from runway, 110 ft. right of centerline
30 FT PLINES 150-200 FT FM THLD ACROSS PRIMARY SFC; 35 FT TREES 0-200 FT FM THLD 110 FT L; 80 FT TREES 200 FT FM THLD 250 FT R.
35 ft. trees, 201 ft. from runway, 110 ft. right of centerline
25 FT TREES AT THLD 10 FT R TO O FT DSTC.

Airport Ownership and Management from official FAA records

Ownership: Privately-owned
Owner: RIVERSIDE AIRPARK, LLC
12107 BOYD RD
CLEAR SPRING, MD 21772
Phone 301-842-3700
Manager: RIVERSIDE AIRPARK, LLC
12107 BOYD RD
CLEAR SPRING, MD 21772
Phone 301-842-3700

Airport Operational Statistics

Aircraft based on the field: 8
Single engine airplanes: 5
Multi engine airplanes: 1
Ultralights: 2
    
Aircraft operations: avg 62/month *
67% transient general aviation
33% local general aviation
* for 12-month period ending 31 December 2014

Additional Remarks

NO ACFT OVER 18500 LBS GWT.
FOR CD CTC POTOMAC APCH AT 866-709-4993.
ARPT CLSD NIGHTS.
UNMANNED ACFT 1000/BLW 1 NMR OF ARPT.
RC MODEL ACFT OPER ON ARPT.
AIRPORT ENTRANCE GATE LOCKED. NO PUBLIC ACCESS TO AIRPORT.
BIRDS & WILDLIFE INVOF ARPT.
RWY 11 APCH END, 30 FT DROP OFF, 30 FT FROM PAVEMENT END.

Instrument Procedures

NOTE: All procedures below are presented as PDF files. If you need a reader for these files, you should download the free Adobe Reader.

NOT FOR NAVIGATION. Please procure official charts for flight.
FAA instrument procedures published for use from 21 June 2018 at 0901Z to 19 July 2018 at 0900Z.

 
IAPs - Instrument Approach Procedures
RNAV (GPS) RWY 11   download (193KB)
RNAV (GPS) RWY 29   download (213KB)
VOR RWY 29   download (221KB)
NOTE: Special Take-Off Minimums/Departure Procedures apply   download (149KB)

Other nearby airports with instrument procedures:

KMRB - Eastern WV Regional Airport/Shepherd Field (19 nm SE)
KHGR - Hagerstown Regional Airport-Richard A Henson Field (20 nm E)
KCBE - Greater Cumberland Regional Airport (28 nm W)
KHMZ - Bedford County Airport (29 nm NW)
N68 - Franklin County Regional Airport (29 nm NE)
 
Loc | Ops | Rwys | IFR | FBO | Links
Com | Nav | Svcs | Stats | Notes

AirNav Hotels Sweepstakes
 
Area around W35 (Potomac Airpark)
 
Road maps at: MapQuest Bing Google
 
Aerial photo
WARNING: Photo may not be current or correct
Aerial photo of W35 (Potomac Airpark)
Photo by Rose Kelly
Taken in the Fall of 2007
from a powered parachute

Do you have a better or more recent aerial photo of Potomac Airpark that you would like to share? If so, please send us your photo.

 
Sectional chart

 
Airport distance calculator
Flying to Potomac Airpark? Find the distance to fly.

From to W35

Sunrise and sunset
Times for 21-Jun-2018
 Local
(UTC-4)
 Zulu
(UTC)
Morning civil twilight05:1309:13
Sunrise05:4609:46
Sunset20:4300:43
Evening civil twilight21:1601:16

Current date and time
Zulu (UTC)  21-Jun-2018 13:04:18
Local (UTC-4)  21-Jun-2018 09:04:18
 
METAR
KMRB 
19nm SE 
211253Z 01003KT 10SM BKN028 OVC047 24/21 A2980 RMK AO2 SLP086 T02390211
KHGR 
20nm E 
211253Z 36006KT 3SM BR BKN007 OVC012 22/20 A2982 RMK AO2 RAB05E14 SLP103 P0000 T02170200
KCBE 
28nm W 
201527Z AUTO 02005KT 10SM OVC015 23/19 A2993 RMK AO1
KHMZ 
29nm NW 
211255Z AUTO 05007KT 10SM DZ OVC009 19/18 A2985 RMK AO2 T01850176
KOKV 
34nm S 
211255Z AUTO 31004KT 10SM SCT038 SCT047 SCT050 24/20 A2983 RMK AO2
KAOO 
37nm N 
211253Z AUTO 02008KT 2SM BR OVC004 18/17 A2987 RMK AO2 SLP108 T01830167
TAF
KMRB 
19nm SE 
211137Z 2112/2212 VRB03KT P6SM FEW002 BKN050 FM211300 01007KT P6SM BKN020 FM211800 03006KT P6SM BKN050 FM220400 07005KT P6SM BKN050 FM220800 09007KT P6SM VCSH BKN035
NOTAMs
Click for the latest NOTAMs
NOTAMs are issued by the DoD/FAA and will open in a separate window not controlled by AirNav.

 

 
 

Would you like to see your business listed on this page?

 If your business provides an interesting product or service to pilots, flight crews, aircraft, or users of the Potomac Airpark, you should consider listing it here.  To start the listing process, click on the button below
 
Add a business
 

Other Pages about Potomac Airpark

Update a link
 
Copyright © AirNav, LLC. All rights reserved. Privacy Policy  Contact